Temperature
1 1 1 0 0 -0 -0 0 -0 -0 -0 -0 -1 -1 -1 -1 -1 -1 -1 -1 -1 -1 -1 -1 -1 -1 -1 -1 -1 -1 -1 -1 -1 -0 -0 -0 0 0 0 1 1 1 1
0 0 0 -0 -0 -1 -1 -0 -0 -1 -1 -1 -1 -1 -1 -1 -1 -1 -1 -1 -1 -1 -1 -1 -1 -1 -1 -1 -1 -1 -1 -1 -1 -1 -1 -0 -0 -0 -0 0 0 0 1
-0 -0 -1 -1 -1 -1 -1 -1 -1 -1 -1 -1 -1 -1 -1 -1 -1 -2 -2 -2 -2 -2 -2 -2 -2 -2 -2 -1 -1 -1 -1 -1 -1 -1 -1 -1 -1 -1 -1 -0 -0 0 0
-1 -1 -1 -1 -1 -1 -1 -1 -1 -1 -1 -1 -1 -1 -1 -2 -2 -2 -2 -2 -2 -2 -2 -2 -2 -2 -2 -2 -2 -2 -2 -2 -1 -1 -1 -1 -1 -1 -1 -0 -0 -0 0
-2 -2 -2 -2 -2 -2 -2 -2 -2 -2 -2 -2 -2 -2 -2 -2 -2 -2 -2 -2 -2 -2 -2 -2 -2 -2 -2 -2 -2 -2 -2 -2 -2 -2 -2 -2 -2 -1 -1 -1 -1 -1 -0
-2 -2 -2 -2 -2 -2 -2 -2 -2 -2 -2 -2 -2 -2 -2 -2 -2 -2 -2 -3 -3 -3 -3 -3 -3 -2 -2 -2 -2 -2 -2 -2 -2 -2 -2 -2 -2 -2 -1 -1 -1 -1 -1
-3 -3 -3 -2 -2 -2 -2 -2 -3 -3 -2 -3 -3 -3 -3 -2 -3 -3 -3 -3 -3 -3 -3 -3 -3 -3 -3 -2 -2 -2 -2 -2 -2 -2 -2 -2 -2 -2 -2 -2 -2 -2 -2
-3 -3 -3 -3 -3 -3 -3 -3 -3 -3 -3 -3 -3 -3 -3 -3 -3 -3 -3 -3 -3 -3 -3 -3 -3 -3 -3 -3 -3 -3 -2 -2 -2 -2 -2 -2 -2 -2 -2 -2 -2 -2 -2
-3 -3 -3 -3 -3 -3 -3 -3 -3 -3 -3 -3 -3 -3 -3 -3 -3 -3 -3 -3 -3 -3 -3 -3 -3 -3 -3 -3 -3 -3 -2 -2 -2 -2 -3 -3 -3 -3 -3 -3 -3 -3 -3
-4 -4 -4 -4 -4 -4 -4 -4 -4 -4 -4 -4 -4 -4 -4 -3 -4 -4 -4 -4 -4 -3 -3 -3 -3 -3 -3 -3 -3 -3 -3 -3 -2 -3 -3 -3 -3 -3 -3 -3 -3 -3 -3
-4 -4 -4 -4 -4 -4 -4 -4 -4 -4 -4 -4 -4 -4 -4 -4 -4 -4 -4 -4 -4 -4 -4 -4 -3 -3 -3 -3 -3 -3 -3 -3 -3 -3 -3 -3 -3 -3 -3 -3 -3 -3 -3
-4 -4 -4 -4 -5 -5 -5 -4 -5 -5 -5 -4 -5 -4 -4 -4 -4 -4 -5 -5 -5 -4 -4 -4 -4 -4 -4 -4 -3 -3 -3 -3 -3 -3 -3 -3 -3 -3 -3 -3 -3 -3 -3
-4 -5 -5 -5 -5 -5 -5 -5 -5 -5 -5 -5 -5 -5 -5 -5 -5 -5 -5 -5 -5 -5 -5 -4 -4 -4 -4 -4 -4 -4 -4 -4 -4 -4 -4 -4 -4 -4 -4 -4 -4 -4 -4
-5 -5 -5 -5 -5 -5 -5 -5 -5 -5 -5 -5 -5 -5 -5 -5 -5 -5 -5 -5 -5 -5 -5 -5 -4 -4 -4 -4 -4 -4 -4 -4 -4 -4 -4 -4 -4 -4 -4 -4 -4 -4 -4
-5 -5 -6 -5 -6 -6 -6 -6 -6 -6 -6 -6 -6 -6 -6 -6 -5 -5 -6 -5 -5 -5 -5 -5 -5 -5 -5 -5 -4 -4 -4 -4 -4 -4 -4 -4 -4 -4 -5 -5 -5 -5 -5
-6 -6 -6 -6 -6 -6 -6 -6 -6 -6 -6 -6 -6 -6 -6 -6 -6 -6 -6 -6 -6 -6 -5 -5 -5 -5 -5 -5 -5 -5 -5 -5 -5 -5 -5 -5 -5 -5 -5 -5 -5 -5 -5
-6 -6 -6 -6 -6 -7 -7 -7 -6 -6 -6 -6 -6 -6 -6 -6 -6 -6 -6 -6 -6 -6 -6 -6 -6 -5 -5 -5 -5 -5 -5 -5 -5 -5 -5 -5 -5 -5 -6 -6 -6 -6 -6
-6 -6 -6 -7 -7 -7 -7 -7 -7 -7 -7 -7 -7 -7 -7 -7 -6 -6 -6 -6 -6 -6 -6 -6 -6 -6 -6 -6 -6 -6 -5 -5 -5 -5 -5 -5 -6 -6 -6 -6 -6 -6 -6
-6 -7 -7 -7 -7 -7 -7 -7 -7 -7 -7 -7 -7 -7 -7 -7 -7 -6 -6 -6 -6 -6 -6 -6 -6 -6 -6 -6 -6 -6 -6 -6 -6 -6 -6 -6 -6 -6 -6 -6 -6 -6 -6
-7 -7 -7 -7 -7 -7 -7 -7 -8 -8 -8 -8 -7 -7 -7 -7 -7 -7 -7 -7 -7 -7 -7 -7 -7 -7 -7 -7 -6 -6 -6 -6 -6 -6 -6 -6 -6 -6 -6 -6 -6 -6 -6
-7 -7 -7 -7 -7 -8 -8 -8 -8 -8 -8 -8 -8 -8 -8 -7 -7 -7 -7 -7 -7 -7 -7 -7 -7 -7 -7 -7 -7 -7 -7 -6 -6 -6 -6 -6 -6 -6 -6 -6 -6 -6 -7
-7 -7 -7 -8 -8 -8 -8 -8 -8 -8 -8 -8 -8 -8 -8 -8 -8 -8 -8 -7 -7 -8 -8 -7 -7 -7 -7 -7 -7 -7 -7 -7 -6 -6 -6 -6 -6 -6 -6 -6 -6 -7 -7
-7 -7 -8 -8 -8 -8 -8 -8 -8 -8 -8 -8 -8 -8 -8 -8 -8 -8 -8 -8 -8 -8 -8 -7 -7 -7 -7 -7 -7 -7 -7 -7 -7 -7 -7 -7 -7 -7 -7 -7 -7 -7 -7
-8 -8 -8 -8 -8 -8 -8 -8 -8 -8 -8 -8 -8 -8 -8 -8 -8 -8 -8 -8 -8 -8 -8 -8 -7 -7 -7 -7 -7 -7 -7 -7 -7 -7 -7 -7 -7 -7 -7 -7 -7 -7 -7
-8 -8 -8 -8 -8 -8 -8 -9 -9 -9 -9 -9 -9 -8 -8 -8 -8 -8 -8 -8 -8 -8 -8 -8 -8 -7 -7 -7 -7 -7 -7 -7 -7 -7 -7 -7 -7 -7 -7 -7 -7 -7 -7
-8 -8 -8 -8 -8 -9 -9 -9 -9 -9 -9 -9 -9 -9 -9 -8 -8 -8 -8 -8 -8 -8 -8 -8 -8 -8 -7 -7 -7 -7 -7 -7 -7 -7 -7 -7 -7 -7 -7 -7 -7 -7 -7
Wind_Speed
1 1 1 1 1 1 1 2 2 2 1 2 2 2 2 2 2 2 3 3 3 3 3 3 4 3 3 3 3 3 3 3 5 5 4 4 4 5 6 6 6 6 6
2 1 1 1 1 1 2 2 2 2 2 2 2 2 3 3 3 3 3 3 3 4 4 3 4 3 4 3 3 3 3 4 4 6 5 4 4 5 5 5 5 5 5
1 1 1 1 2 2 2 3 2 3 2 2 2 3 3 3 3 3 3 4 4 4 4 4 4 4 5 4 4 4 4 4 4 5 6 4 4 4 4 5 5 4 5
1 1 2 2 2 2 3 2 2 3 3 3 3 3 3 3 4 4 3 4 4 4 4 5 5 5 5 5 5 5 4 4 4 4 5 4 4 4 3 4 4 3 4
1 2 2 2 2 2 2 2 2 3 3 3 3 3 3 3 4 4 4 4 4 4 5 5 5 6 7 6 5 5 4 4 4 4 4 4 4 4 4 3 4 3 3
2 2 2 2 2 2 2 2 2 3 3 3 3 3 3 4 6 6 5 4 4 4 5 5 5 6 7 8 9 8 6 5 5 5 5 5 5 5 4 3 2 3 3
2 2 2 2 2 2 2 2 2 3 3 3 3 3 4 5 7 7 6 4 4 4 5 5 5 6 6 5 8 8 7 7 7 6 6 7 6 6 4 3 3 3 4
2 2 2 2 2 2 2 3 3 3 3 3 4 4 4 5 7 7 6 4 4 5 5 6 6 6 6 6 5 5 5 6 6 5 6 6 6 5 4 3 3 2 2
2 2 2 2 3 2 3 3 3 3 3 3 4 4 4 6 8 7 6 3 4 5 5 5 5 6 8 8 5 5 5 5 5 6 6 6 6 5 4 1 1 1 2
2 2 2 2 3 3 3 3 3 3 3 4 4 4 4 5 7 7 5 3 4 4 5 5 7 7 8 7 4 4 5 5 4 3 3 4 4 3 4 2 3 2 2
2 1 1 2 2 3 3 2 2 3 3 3 4 4 4 5 6 7 7 3 3 4 4 4 5 7 7 7 5 4 5 4 3 3 2 2 2 2 2 2 2 2 3
1 1 1 2 2 2 2 2 2 2 2 3 3 4 3 4 6 7 8 7 6 4 4 4 5 7 7 6 5 5 5 4 2 1 1 2 2 2 1 1 2 2 2
1 1 2 2 2 2 1 2 2 2 2 3 3 3 4 3 4 8 7 7 7 4 4 6 7 7 6 4 5 6 4 2 1 1 2 2 2 1 1 1 1 1 2
1 1 1 1 2 2 2 2 2 2 2 3 3 3 4 3 3 4 4 4 5 5 4 5 7 6 4 4 4 3 2 1 1 2 2 1 1 1 0 1 1 1 1
1 1 1 2 2 2 2 2 2 2 3 3 3 2 3 4 5 7 5 3 2 3 3 2 2 2 3 3 3 2 2 1 1 1 1 1 1 1 1 1 0 0 1
1 1 1 1 1 2 2 3 5 4 6 6 5 4 4 5 7 7 7 6 6 5 3 2 2 2 2 2 3 2 2 2 1 1 1 1 1 1 1 1 0 0 0
2 2 2 2 1 2 2 2 3 5 6 6 6 6 5 6 6 7 7 6 5 4 2 2 2 2 3 2 2 2 2 2 1 1 1 1 1 1 1 1 0 0 0
2 2 2 1 2 2 2 2 2 3 4 4 5 7 7 7 7 7 6 4 3 3 2 2 3 3 3 3 2 2 2 2 1 1 1 1 1 1 1 1 1 0 1
2 2 2 1 2 2 2 2 2 3 3 3 4 5 7 7 6 6 5 2 2 2 3 3 3 3 3 2 2 2 2 2 1 1 1 1 1 1 1 1 1 1 1
2 3 2 2 1 2 2 2 2 2 3 3 3 4 4 4 3 4 3 2 2 2 3 3 3 3 3 2 2 2 2 2 2 1 1 1 1 1 1 1 1 1 1
2 2 3 2 2 2 2 2 2 2 3 3 3 4 5 3 3 3 3 3 2 2 3 3 3 3 3 2 2 2 2 2 2 1 1 1 1 1 1 1 1 1 0
2 2 2 2 2 2 2 2 2 2 3 3 3 4 6 3 2 3 3 3 3 3 3 3 3 3 2 3 2 2 2 2 2 2 1 1 1 1 1 1 0 0 1
2 2 2 2 2 3 2 2 2 2 3 3 3 3 3 3 3 3 3 3 3 3 3 3 3 3 3 4 3 3 3 3 3 2 2 1 1 1 1 1 1 1 1
2 2 2 2 2 2 2 3 3 3 3 3 3 3 3 3 3 3 3 3 3 3 3 3 3 4 4 4 4 4 4 4 3 3 3 2 1 1 1 1 1 1 0
2 2 2 3 3 3 3 3 3 3 3 3 3 3 3 3 3 3 3 3 3 3 4 4 4 4 5 5 5 4 4 3 3 2 2 2 2 2 2 2 1 1 1
2 2 2 2 3 3 3 3 3 3 3 3 3 3 3 3 3 3 3 3 3 3 4 4 5 5 5 5 5 5 4 3 2 2 2 2 2 1 2 1 1 1 2
Wind_Direction
226 245 252 270 269 260 256 257 267 270 270 269 271 272 272 272 281 274 274 277 272 273 275 270 280 285 277 276 275 275 267 254 268 286 282 292 287 295 300 292 288 292 295
232 240 261 272 272 264 270 276 280 274 262 260 264 265 269 267 260 259 271 278 271 268 268 266 274 280 278 275 268 268 266 259 259 279 288 290 280 282 288 285 291 290 291
250 242 263 265 264 263 269 278 284 279 277 270 260 258 266 268 263 259 254 263 263 264 263 258 264 269 273 276 272 267 266 270 264 270 283 281 284 293 297 293 290 287 294
242 248 262 266 263 266 271 277 280 279 278 278 269 262 259 261 262 261 255 261 263 267 265 259 260 256 258 262 266 262 261 264 266 270 278 282 286 289 292 290 294 293 298
234 241 255 271 275 273 275 277 284 285 280 279 280 283 278 266 261 266 259 264 263 273 270 266 264 265 267 266 267 262 256 257 263 269 276 283 285 293 287 276 279 295 301
231 243 259 267 279 274 268 272 284 291 291 290 288 284 287 291 295 289 281 261 261 268 274 276 275 270 271 277 277 276 262 253 254 257 266 268 274 275 279 276 279 296 298
235 247 255 257 271 272 273 274 277 277 277 279 279 278 277 286 299 297 297 281 261 263 266 271 279 280 283 274 276 279 271 261 251 248 252 260 265 267 269 270 269 271 271
242 245 253 261 267 275 274 270 271 270 269 272 275 273 276 284 297 296 301 287 267 265 266 263 264 272 275 277 274 275 269 264 260 252 249 257 261 261 247 247 256 280 293
254 257 261 263 266 268 269 271 269 270 275 274 277 274 279 287 294 295 302 280 275 275 275 272 269 269 279 286 276 272 277 280 278 264 268 271 275 274 266 245 247 252 283
270 271 271 267 264 265 266 273 273 271 274 282 286 280 275 280 296 300 300 273 282 287 286 281 277 276 283 288 265 261 269 278 290 301 302 305 299 293 290 264 229 225 257
292 289 291 285 273 267 268 270 274 278 287 286 286 287 279 286 298 300 300 289 280 287 293 292 287 288 289 290 285 260 267 278 278 282 296 312 327 327 312 286 250 221 223
321 313 306 298 289 292 286 288 280 276 289 289 289 297 291 290 300 302 303 302 306 284 285 287 291 296 294 291 291 289 287 288 279 289 300 303 307 311 311 293 270 253 242
326 314 312 319 318 315 298 294 299 289 285 292 295 298 305 305 306 309 306 308 314 306 294 302 307 306 302 297 299 303 297 285 279 290 285 286 286 289 313 355 1 4 355
287 302 311 315 323 326 318 306 299 292 288 292 300 303 309 313 314 317 314 312 313 312 310 313 316 315 317 316 316 311 304 287 275 270 284 300 321 342 324 348 338 0 11
295 297 308 311 307 318 322 309 299 280 287 296 288 288 299 306 315 325 327 319 321 317 327 339 351 350 351 346 341 338 337 326 303 307 297 309 318 317 310 326 326 71 48
293 304 307 306 315 325 323 326 324 318 323 321 317 311 304 311 321 325 326 329 333 338 346 346 338 335 332 328 332 344 352 341 323 322 313 283 278 293 316 346 356 134 340
264 286 297 305 314 316 322 324 325 333 335 335 332 328 326 328 329 328 328 330 339 350 355 339 330 325 325 325 326 328 335 337 343 341 327 303 288 287 294 304 333 355 345
262 276 290 284 288 294 301 307 309 320 331 333 335 335 334 332 331 331 332 342 351 354 344 328 325 327 327 327 327 328 334 348 337 316 310 310 300 283 275 284 292 290 297
268 277 281 278 281 287 299 307 312 314 316 320 328 335 337 334 334 340 346 356 341 331 330 326 325 325 326 327 331 330 325 323 324 314 302 291 297 286 276 273 279 281 293
266 281 294 288 283 291 297 306 313 314 315 317 321 325 332 338 343 346 349 343 331 319 317 316 318 320 322 321 321 320 319 312 310 314 310 303 295 273 265 263 269 265 277
270 278 291 298 286 282 287 289 295 304 309 310 308 316 331 329 326 326 329 332 324 315 311 311 310 313 314 313 308 306 305 302 298 294 298 298 287 278 272 257 246 240 245
256 267 273 273 282 284 286 284 287 296 302 306 312 319 329 335 330 325 322 319 316 309 305 301 303 302 300 302 298 298 297 293 286 281 279 284 282 260 239 230 229 198 160
239 256 266 271 275 284 296 296 291 291 294 299 308 318 324 325 323 321 320 319 318 320 315 308 308 310 308 303 294 280 276 274 266 252 249 255 253 223 200 202 203 198 183
231 240 247 255 260 263 270 280 282 283 287 292 299 306 311 313 314 316 317 317 321 319 312 308 307 308 311 313 310 302 289 279 265 243 231 225 222 210 188 189 201 199 182
233 238 243 247 254 260 265 270 274 278 282 287 292 295 299 305 308 311 312 313 315 315 314 312 311 312 310 312 314 310 300 286 272 244 209 206 204 200 183 177 175 167 145
238 241 247 250 252 257 260 265 270 273 277 283 286 289 292 296 300 304 307 308 312 313 311 309 309 310 312 313 314 315 309 290 261 203 169 183 181 182 173 170 163 151 142
Height
1487 1487 1486 1485 1484 1484 1483 1482 1482 1481 1480 1479 1479 1478 1477 1477 1476 1476 1475 1475 1474 1474 1473 1473 1472 1472 1471 1471 1471 1470 1469 1468 1466 1464 1464 1462 1461 1460 1458 1457 1456 1454 1453
1484 1484 1483 1482 1481 1481 1480 1479 1479 1478 1477 1477 1476 1475 1474 1474 1473 1473 1472 1472 1471 1470 1470 1469 1469 1468 1468 1467 1467 1466 1465 1464 1463 1460 1459 1458 1457 1456 1454 1452 1451 1450 1449
1481 1480 1480 1479 1478 1478 1477 1476 1476 1475 1474 1474 1473 1472 1471 1471 1470 1470 1470 1469 1468 1467 1467 1466 1465 1465 1464 1463 1463 1462 1461 1460 1459 1457 1455 1453 1452 1451 1450 1448 1447 1446 1444
1478 1477 1476 1476 1475 1475 1474 1474 1473 1472 1471 1471 1470 1469 1469 1468 1467 1467 1467 1466 1465 1464 1463 1463 1462 1461 1461 1460 1459 1458 1457 1456 1455 1453 1451 1450 1448 1447 1446 1444 1442 1441 1440
1475 1474 1473 1473 1472 1472 1471 1471 1470 1469 1469 1468 1467 1466 1466 1465 1465 1464 1464 1463 1462 1461 1460 1459 1458 1458 1457 1456 1455 1454 1453 1452 1451 1449 1448 1446 1444 1443 1441 1440 1439 1437 1436
1471 1471 1470 1470 1469 1469 1468 1468 1467 1466 1466 1465 1464 1463 1463 1462 1462 1461 1461 1459 1458 1457 1456 1455 1455 1454 1453 1452 1451 1451 1450 1448 1447 1446 1444 1442 1440 1439 1438 1436 1435 1433 1431
1468 1468 1467 1467 1466 1466 1465 1464 1464 1463 1462 1462 1461 1460 1460 1459 1459 1458 1457 1456 1455 1454 1453 1452 1451 1450 1449 1448 1447 1446 1445 1444 1443 1442 1440 1438 1437 1436 1434 1432 1431 1430 1429
1465 1464 1464 1463 1463 1463 1462 1461 1461 1460 1459 1458 1458 1457 1457 1456 1455 1455 1454 1453 1452 1451 1449 1448 1447 1446 1445 1444 1443 1442 1440 1439 1438 1437 1436 1434 1433 1432 1431 1430 1428 1427 1426
1462 1461 1461 1460 1460 1459 1459 1458 1458 1457 1456 1455 1455 1454 1453 1452 1452 1451 1450 1449 1448 1447 1446 1445 1443 1442 1442 1441 1439 1438 1436 1435 1434 1433 1432 1430 1429 1428 1427 1426 1425 1424 1423
1459 1459 1458 1458 1457 1456 1456 1455 1455 1454 1453 1452 1451 1451 1450 1449 1448 1448 1447 1446 1444 1443 1442 1441 1440 1439 1438 1437 1436 1434 1432 1431 1430 1428 1427 1426 1425 1424 1424 1423 1422 1421 1420
1457 1456 1456 1455 1455 1454 1453 1453 1452 1451 1451 1450 1449 1448 1447 1446 1445 1444 1443 1442 1441 1439 1438 1436 1436 1435 1434 1433 1432 1431 1429 1428 1427 1425 1423 1422 1421 1421 1420 1420 1419 1419 1418
1455 1454 1454 1453 1452 1452 1451 1450 1449 1449 1448 1447 1446 1445 1444 1443 1442 1441 1440 1439 1438 1436 1434 1433 1432 1432 1431 1429 1428 1427 1426 1425 1423 1422 1420 1419 1418 1418 1418 1417 1416 1416 1416
1453 1452 1452 1451 1450 1450 1449 1448 1447 1446 1445 1444 1443 1442 1441 1440 1439 1438 1437 1436 1434 1433 1431 1431 1430 1428 1427 1426 1425 1424 1423 1422 1420 1419 1418 1417 1417 1416 1415 1414 1414 1414 1413
1451 1450 1450 1449 1448 1448 1447 1446 1445 1444 1443 1442 1441 1440 1438 1437 1436 1435 1433 1432 1431 1430 1428 1428 1427 1425 1424 1423 1422 1421 1420 1419 1418 1417 1416 1416 1415 1414 1413 1413 1412 1412 1411
1449 1448 1448 1447 1446 1445 1445 1444 1443 1442 1441 1440 1439 1438 1436 1435 1434 1433 1431 1430 1428 1427 1426 1425 1424 1423 1421 1420 1419 1418 1417 1417 1416 1415 1414 1414 1413 1413 1412 1411 1411 1410 1409
1447 1446 1446 1445 1444 1443 1443 1442 1441 1440 1439 1438 1437 1436 1435 1434 1432 1431 1430 1428 1427 1426 1424 1423 1421 1420 1419 1418 1417 1416 1416 1415 1414 1414 1413 1412 1412 1411 1410 1410 1410 1409 1409
1446 1445 1444 1443 1442 1441 1441 1439 1438 1438 1437 1435 1434 1433 1433 1431 1430 1429 1428 1426 1425 1424 1422 1421 1420 1419 1418 1417 1416 1415 1414 1414 1413 1412 1412 1411 1411 1410 1409 1408 1408 1408 1408
1444 1443 1442 1441 1441 1440 1439 1438 1437 1435 1434 1433 1432 1431 1430 1429 1428 1427 1426 1424 1423 1422 1421 1420 1419 1418 1417 1416 1415 1414 1413 1412 1412 1411 1410 1410 1409 1409 1408 1408 1407 1407 1407
1442 1441 1441 1440 1439 1438 1437 1436 1435 1434 1432 1431 1430 1429 1428 1427 1426 1425 1423 1422 1421 1420 1419 1418 1417 1416 1415 1414 1413 1413 1412 1411 1410 1410 1409 1409 1408 1408 1407 1407 1407 1406 1406
1440 1440 1439 1438 1437 1436 1435 1434 1433 1432 1430 1429 1428 1427 1425 1424 1423 1422 1421 1420 1419 1418 1418 1417 1416 1415 1414 1413 1412 1411 1410 1410 1409 1408 1408 1408 1407 1407 1406 1406 1406 1406 1405
1438 1437 1437 1436 1435 1434 1433 1432 1431 1430 1429 1427 1426 1425 1424 1422 1421 1420 1419 1418 1417 1416 1416 1415 1414 1413 1412 1411 1410 1409 1409 1408 1408 1407 1407 1406 1406 1406 1406 1405 1405 1405 1405
1436 1435 1434 1433 1433 1432 1431 1430 1429 1428 1427 1426 1424 1423 1422 1421 1420 1419 1418 1417 1416 1415 1414 1413 1412 1411 1410 1409 1408 1407 1407 1406 1406 1406 1405 1405 1405 1405 1405 1405 1405 1404 1404
1434 1433 1432 1431 1431 1430 1429 1428 1427 1426 1425 1424 1423 1422 1421 1419 1418 1417 1416 1415 1414 1413 1412 1411 1410 1409 1409 1408 1407 1406 1405 1405 1405 1404 1404 1404 1404 1404 1404 1404 1404 1404 1404
1431 1430 1430 1429 1428 1428 1427 1426 1425 1424 1423 1422 1421 1420 1419 1418 1417 1416 1415 1414 1413 1412 1410 1409 1409 1408 1407 1406 1405 1404 1404 1403 1403 1403 1403 1403 1403 1403 1404 1404 1404 1404 1404
1429 1428 1427 1427 1426 1425 1425 1424 1423 1422 1421 1420 1419 1418 1417 1416 1415 1414 1413 1412 1411 1410 1409 1408 1407 1406 1405 1404 1403 1402 1402 1402 1402 1402 1402 1402 1402 1403 1403 1403 1403 1403 1403
1426 1425 1425 1424 1424 1423 1422 1422 1421 1420 1419 1418 1417 1416 1415 1414 1413 1412 1411 1410 1409 1408 1407 1406 1405 1404 1403 1402 1401 1401 1400 1400 1400 1401 1401 1401 1402 1402 1402 1402 1403 1403 1403